This demonstration page uses our WeatherBlox Daily Observations layout. Learn more.

Left ArrowRight Arrow

39.51506, -84.39828

Hourly Observations for October 12, 2018

Temp ( °F °C ) Dew Point ( °F °C ) Humidity (%) Winds ( mph kmh ) Pressure ( in mb ) Visibility ( mi km ) Precip ( " mm )
12:15 am 00:15 Clear 46 7.5 38 3.6 77 77 Calm 30 1016 10 16.0934 0 0
12:35 am 00:35 Clear 45 7 38 3.4 78 78 WNW 5 7 30 1016 10 16.0934 0 0
1:15 am 01:15 Clear 43 6.2 38 3.4 82 82 W 3 6 30 1016 10 16.0934 0 0
1:35 am 01:35 Clear 43 6.2 38 3.4 82 82 W 3 6 30 1016 10 16.0934 0 0
1:55 am 01:55 Clear 43 6.3 37 3 80 80 W 3 6 30.03 1017 10 16.0934 0 0
2:15 am 02:15 Clear 43 6.3 37 2.9 79 79 W 3 6 30.03 1017 10 16.0934 0 0
2:35 am 02:35 Clear 42 5.7 37 2.7 81 81 W 3 6 30.03 1017 10 16.0934 0 0
2:55 am 02:55 Clear 42 5.6 37 2.7 82 82 Calm 30.03 1017 10 16.0934 0 0
3:15 am 03:15 Clear 41 5.1 39 4.1 93 93 Calm 30.03 1017 10 16.0934 0 0
3:35 am 03:35 Clear 40 4.2 38 3.6 96 96 Calm 30.03 1017 10 16.0934 0 0
3:55 am 03:55 Clear 38 3.5 37 2.8 95 95 WSW 3 6 30.06 1018 10 16.0934 0 0
4:15 am 04:15 Clear 39 3.7 37 2.7 93 93 WSW 3 6 30.06 1018 10 16.0934 0 0
4:35 am 04:35 Clear 38 3.3 36 2.2 93 93 Calm 30.06 1018 10 16.0934 0 0
4:55 am 04:55 Clear 39 4.1 37 2.8 91 91 Calm 30.03 1017 10 16.0934 0 0
5:15 am 05:15 Clear 39 3.7 36 2.3 91 91 Calm 30.06 1018 10 16.0934 0 0
5:35 am 05:35 Clear 40 4.2 37 2.6 89 89 Calm 30.06 1018 10 16.0934 0 0
5:55 am 05:55 Clear 40 4.2 37 2.5 89 89 Calm 30.06 1018 10 16.0934 0 0
6:15 am 06:15 Clear 39 4.1 36 2.4 89 89 Calm 30.03 1017 10 16.0934 0 0
6:35 am 06:35 Clear 39 4 36 2.2 88 88 Calm 30.09 1019 10 16.0934 0 0
6:55 am 06:55 Clear 38 3.4 36 2.2 92 92 Calm 30.09 1019 10 16.0934 0 0
7:15 am 07:15 Clear 37 2.5 35 1.5 93 93 Calm 30.06 1018 10 16.0934 0 0
7:35 am 07:35 Clear 38 3.4 36 2 91 91 Calm 30.06 1018 10 16.0934 0 0
7:55 am 07:55 Sunny 38 3.2 35 1.8 91 91 Calm 30.06 1018 10 16.0934 0 0
8:15 am 08:15 Sunny 38 3.5 36 2 90 90 Calm 30.06 1018 10 16.0934 0 0
8:35 am 08:35 Sunny 39 4.1 37 2.6 90 90 SSW 5 7 30.03 1017 10 16.0934 0 0
8:55 am 08:55 Sunny 41 5 37 2.7 85 85 SSW 3 6 30.03 1017 10 16.0934 0 0
9:15 am 09:15 Sunny 42 5.5 37 3 84 84 Calm 30.03 1017 10 16.0934 0 0
9:35 am 09:35 Sunny 43 6.1 37 2.9 80 80 Calm 30.03 1017 10 16.0934 0 0
9:55 am 09:55 Sunny 44 6.7 38 3.2 79 79 Calm 30.03 1017 10 16.0934 0 0
10:15 am 10:15 Sunny 45 7.4 38 3.5 77 77 Calm 30.03 1017 10 16.0934 0 0
10:35 am 10:35 Sunny 47 8.3 39 3.8 74 74 W 3 6 30.03 1017 10 16.0934 0 0
10:55 am 10:55 Sunny 48 8.9 39 3.9 71 71 SSE 3 6 30.06 1018 10 16.0934 0 0
11:15 am 11:15 Sunny 49 9.4 37 3 65 65 Calm 30.03 1017 10 16.0934 0 0
11:35 am 11:35 Sunny 49 9.6 37 2.6 62 62 S 3 6 30.03 1017 10 16.0934 0 0
11:55 am 11:55 Sunny 50 9.8 37 2.6 61 61 Calm 30 1016 10 16.0934 0 0
12:15 pm 12:15 Sunny 50 10.1 38 3.3 63 63 SSW 6 9 30.03 1017 10 16.0934 0 0
12:35 pm 12:35 Sunny 50 10.1 37 2.8 61 61 SSW 8 13 30 1016 10 16.0934 0 0
12:55 pm 12:55 Sunny 51 10.6 37 3 60 60 SSW 5 7 30 1016 10 16.0934 0 0
1:15 pm 13:15 Sunny 52 11 36 2.2 55 55 WSW 7 11 30 1016 10 16.0934 0 0
1:35 pm 13:35 Sunny 52 11.1 36 2.3 55 55 W 3 6 29.97 1015 10 16.0934 0 0
1:55 pm 13:55 Sunny 53 11.5 37 2.7 55 55 SW 7 11 29.97 1015 10 16.0934 0 0
2:15 pm 14:15 Sunny 53 11.5 35 1.9 52 52 S 5 7 29.97 1015 10 16.0934 0 0
2:35 pm 14:35 Sunny 54 12 37 2.5 53 53 W 6 9 29.97 1015 10 16.0934 0 0
2:55 pm 14:55 Sunny 54 12.1 36 2 50 50 SW 10 17 29.94 1014 10 16.0934 0 0
3:15 pm 15:15 Sunny 53 11.7 35 1.7 51 51 SW 9 15 29.94 1014 10 16.0934 0 0
3:35 pm 15:35 Sunny 54 12 36 2.1 51 51 WSW 8 13 29.94 1014 10 16.0934 0 0
3:55 pm 15:55 Sunny 54 12.2 36 2 50 50 WSW 5 7 29.94 1014 10 16.0934 0 0
4:15 pm 16:15 Sunny 54 12 35 1.4 49 49 SSW 10 17 29.94 1014 10 16.0934 0 0
4:35 pm 16:35 Mostly Cloudy 54 12.1 34 1 47 47 SW 10 17 29.94 1014 10 16.0934 0 0
4:55 pm 16:55 Cloudy 53 11.7 33 0.6 47 47 WSW 10 17 29.94 1014 10 16.0934 0 0
5:15 pm 17:15 Cloudy 53 11.6 34 1 48 48 WSW 7 11 29.94 1014 10 16.0934 0 0
5:35 pm 17:35 Cloudy 52 11.2 33 0.3 47 47 WSW 8 13 29.91 1013 10 16.0934 0 0
5:55 pm 17:55 Cloudy with Light Rain 51 10.6 34 1.1 52 52 W 8 13 29.91 1013 10 16.0934 0 0
6:15 pm 18:15 Cloudy 50 9.8 37 2.5 61 61 W 7 11 29.94 1014 10 16.0934 0 0
6:35 pm 18:35 Cloudy with Light Rain 49 9.2 37 3 65 65 WNW 6 9 29.94 1014 10 16.0934 0 0
6:55 pm 18:55 Cloudy with Light Rain 47 8.2 37 2.9 70 70 W 9 15 29.94 1014 10 16.0934 0 0
7:15 pm 19:15 Cloudy with Light Rain 46 7.6 39 3.7 77 77 WNW 8 13 29.91 1013 10 16.0934 0 0
7:35 pm 19:35 Cloudy with Light Rain 45 7.3 39 4 80 80 W 6 9 29.91 1013 10 16.0934 0 0
7:55 pm 19:55 Cloudy with Light Rain 45 7 40 4.2 83 83 W 6 9 29.91 1013 10 16.0934 0.02 0.508
8:15 pm 20:15 Cloudy with Light Rain 44 6.9 41 4.9 87 87 W 6 9 29.91 1013 10 16.0934 0 0
8:35 pm 20:35 Cloudy 44 6.9 41 5 88 88 W 8 13 29.94 1014 10 16.0934 0 0
8:55 pm 20:55 Cloudy 44 6.7 40 4.3 85 85 WNW 9 15 29.94 1014 10 16.0934 0 0
9:15 pm 21:15 Cloudy 44 6.5 40 4.4 87 87 W 5 7 29.94 1014 10 16.0934 0 0
9:35 pm 21:35 Cloudy with Light Rain 44 6.5 41 4.9 90 90 Calm 29.94 1014 10 16.0934 0 0
9:55 pm 21:55 Cloudy 43 6.3 40 4.3 87 87 W 5 7 29.91 1013 10 16.0934 0 0
10:15 pm 22:15 Cloudy with Rain 43 6.1 40 4.6 90 90 W 7 11 29.94 1014 7 11.26538 0.01 0.254
10:35 pm 22:35 Cloudy with Light Rain 43 6 40 4.6 91 91 WNW 8 13 29.94 1014 10 16.0934 0.02 0.508
10:55 pm 22:55 Cloudy with Light Rain 43 6 40 4.7 91 91 W 8 13 29.94 1014 10 16.0934 0.02 0.508
11:15 pm 23:15 Cloudy with Light Rain 42 5.8 40 4.3 90 90 NW 7 11 29.94 1014 10 16.0934 0 0
11:35 pm 23:35 Cloudy with Light Rain 42 5.4 40 4.2 92 92 NW 6 9 29.94 1014 7 11.26538 0 0
11:55 pm 23:55 Cloudy with Light Rain 41 5.2 39 3.9 91 91 WNW 8 13 29.94 1014 10 16.0934 0 0

Powered by AerisWeather